Location: Limoges
(45.8354°N, 1.2645°E)
Time: 10:01:28
(UTC+01:00)

Explorer 11/Cluster Stage 4 - Visible Passes

Search period start: 25 February 2024 00:00
Search period end: 06 March 2024 00:00
Orbit: 465 x 1224 km, 28.8° (Epoch: 24 February)

Date Brightness Start Highest point End Pass type
(mag) Time Alt. Az. Time Alt. Az. Time Alt. Az.
25 Feb 8.8 05:47:45 13° SSW 05:48:13 13° SSW 05:50:52 10° S visible
26 Feb 8.9 05:32:09 13° SSW 05:32:09 13° SSW 05:34:23 10° S visible
27 Feb 9.1 05:16:35 12° S 05:16:35 12° S 05:17:48 10° S visible
28 Feb 9.3 05:01:03 10° S 05:01:03 10° S 05:01:08 10° S visible
